Thurlow Lake Weather Center

Moon Phase Calendar



Thurlow Lake Water Level
Online Cameras

 


      

Current Conditions in Tallassee
3/26/2023 5:08:09 AM

68°F
Feels Like 69
Clouds
Humidity
99%
Pressure
29.88"
Wind
3.7 mph (SSW)
Dew Point
67°F
UV Index
0/10 (Low)
Visibility
1 mi

Hourly Forecast

Date & Time Sun, Mar 26
5:00 AM
Sun, Mar 26
6:00 AM
Sun, Mar 26
7:00 AM
Sun, Mar 26
8:00 AM
Sun, Mar 26
9:00 AM
Sun, Mar 26
10:00 AM
Sun, Mar 26
11:00 AM
Sun, Mar 26
12:00 PM
Sun, Mar 26
1:00 PM
Sun, Mar 26
2:00 PM
Sun, Mar 26
3:00 PM
Sun, Mar 26
4:00 PM
Sun, Mar 26
5:00 PM
Sun, Mar 26
6:00 PM
Sun, Mar 26
7:00 PM
Sun, Mar 26
8:00 PM
Sun, Mar 26
9:00 PM
Sun, Mar 26
10:00 PM
Sun, Mar 26
11:00 PM
Mon, Mar 27
12:00 AM
Mon, Mar 27
1:00 AM
Mon, Mar 27
2:00 AM
Mon, Mar 27
3:00 AM
Mon, Mar 27
4:00 AM
Mon, Mar 27
5:00 AM
Mon, Mar 27
6:00 AM
Mon, Mar 27
7:00 AM
Mon, Mar 27
8:00 AM
Mon, Mar 27
9:00 AM
Mon, Mar 27
10:00 AM
Mon, Mar 27
11:00 AM
Mon, Mar 27
12:00 PM
Mon, Mar 27
1:00 PM
Mon, Mar 27
2:00 PM
Mon, Mar 27
3:00 PM
Mon, Mar 27
4:00 PM
Mon, Mar 27
5:00 PM
Mon, Mar 27
6:00 PM
Mon, Mar 27
7:00 PM
Mon, Mar 27
8:00 PM
Mon, Mar 27
9:00 PM
Mon, Mar 27
10:00 PM
Mon, Mar 27
11:00 PM
Tue, Mar 28
12:00 AM
Tue, Mar 28
1:00 AM
Tue, Mar 28
2:00 AM
Tue, Mar 28
3:00 AM
Tue, Mar 28
4:00 AM
Condition
Rain

Clouds

Clouds

Rain

Clouds

Rain

Rain

Rain

Rain

Rain

Rain

Clouds

Rain

Rain

Rain

Rain

Rain

Rain

Rain

Rain

Rain

Rain

Rain

Rain

Rain

Rain

Rain

Rain

Rain

Clouds

Clouds

Clouds

Clouds

Clouds

Clouds

Clouds

Clouds

Clouds

Clouds

Clouds

Clouds

Clouds

Clouds

Clouds

Clouds

Clouds

Clouds

Clouds
Temperature 68°F67°F67°F68°F70°F72°F75°F77°F77°F77°F78°F79°F77°F74°F71°F69°F67°F69°F69°F69°F69°F69°F69°F69°F68°F68°F67°F67°F68°F67°F68°F69°F72°F74°F77°F77°F75°F71°F65°F62°F60°F60°F58°F57°F56°F54°F53°F53°F
Feels Like 69°F68°F68°F69°F71°F73°F75°F78°F78°F77°F78°F79°F78°F75°F72°F70°F68°F70°F70°F70°F70°F70°F70°F70°F69°F69°F68°F68°F69°F68°F68°F69°F71°F74°F76°F76°F74°F71°F64°F61°F60°F59°F57°F56°F54°F53°F52°F52°F
Cloudiness 62%63%67%85%92%99%100%100%100%100%100%88%91%93%94%100%100%100%100%100%100%89%94%96%97%98%96%100%100%97%98%97%94%58%61%67%62%52%46%17%52%40%53%63%69%100%98%99%
Visibility 1 mi4 mi6 mi6 mi6 mi6 mi6 mi6 mi6 mi6 mi6 mi6 mi6 mi6 mi6 mi5 mi4 mi6 mi6 mi6 mi6 mi6 mi6 mi6 mi6 mi6 mi6 mi6 mi6 mi6 mi6 mi6 mi6 mi6 mi6 mi6 mi6 mi6 mi6 mi6 mi6 mi6 mi6 mi6 mi6 mi6 mi6 mi6 mi
Precipitation 96%78%80%79%81%79%75%75%77%90%83%71%91%97%100%100%94%92%92%91%92%93%97%100%100%100%100%88%78%66%62%49%49%0%0%0%0%0%0%0%0%0%0%0%0%0%0%0%
Humidity 99%98%98%96%92%85%77%71%70%74%71%66%77%83%87%93%97%93%93%94%95%96%96%96%96%96%96%96%92%87%83%76%66%55%46%44%50%59%69%73%74%73%73%73%74%76%78%76%
Dew Point 67°F67°F67°F67°F67°F67°F67°F67°F66°F68°F67°F67°F68°F68°F66°F66°F66°F67°F67°F67°F67°F67°F67°F67°F67°F67°F66°F66°F65°F63°F62°F61°F59°F57°F55°F53°F55°F56°F54°F53°F52°F51°F49°F48°F47°F47°F46°F45°F
Pressure 29.88"29.88"29.91"29.94"29.94"29.97"29.97"29.97"29.94"29.94"29.91"29.88"29.88"29.88"29.88"29.85"29.88"29.88"29.91"29.91"29.91"29.91"29.91"29.91"29.91"29.94"29.97"30"30"30.03"30.06"30.06"30.06"30.03"30.03"30.03"30.03"30.06"30.06"30.09"30.12"30.12"30.12"30.12"30.12"30.09"30.09"30.09"
Wind Speed 3.7 mph4.6 mph4.6 mph6.5 mph9.3 mph9.6 mph10.4 mph11.7 mph11.6 mph10.3 mph9.3 mph8.2 mph6.4 mph3.5 mph4.5 mph5.2 mph7.8 mph11.5 mph12.1 mph11.2 mph10.6 mph10.4 mph9.6 mph9.6 mph8.9 mph8.2 mph7.8 mph6.7 mph6.4 mph6.2 mph5 mph4.4 mph4.1 mph4.2 mph5.9 mph7.7 mph7.5 mph6.5 mph6 mph6 mph6.8 mph7.6 mph7.4 mph7 mph7 mph6.2 mph6 mph5.7 mph
Wind
Direction
195°
SSW
199°
SSW
216°
SW
211°
SSW
218°
SW
220°
SW
223°
SW
232°
SW
243°
WSW
246°
WSW
258°
WSW
273°
W
281°
W
303°
WNW
217°
SW
177°
S
199°
SSW
200°
SSW
206°
SSW
213°
SSW
221°
SW
225°
SW
224°
SW
223°
SW
231°
SW
249°
WSW
260°
W
275°
W
306°
NW
334°
NNW
330°
NNW
323°
NW
313°
NW
291°
WNW
301°
WNW
320°
NW
336°
NNW
349°
N

N

N

N
14°
NNE
21°
NNE
24°
NNE
27°
NNE
34°
NE
39°
NE
41°
NE

Daily Forecast

Date High Low Precip. Humidity
Today
Mar 26

Rain
79 °F
66 °F
100%
71%
Monday
Mar 27

Rain
77 °F
58 °F
100%
76%
Tuesday
Mar 28

Rain
57 °F
50 °F
86%
92%
Wednesday
Mar 29

Clouds
70 °F
46 °F
0%
40%
Thursday
Mar 30

Clouds
75 °F
50 °F
0%
48%
Friday
Mar 31

Clouds
80 °F
55 °F
0%
52%
Saturday
Apr 1

Rain
82 °F
61 °F
100%
77%
Sunday
Apr 2

Clouds
70 °F
51 °F
0%
34%
Monday
Apr 3

Clouds
76 °F
49 °F
0%
38%
Tuesday
Apr 4

Rain
77 °F
60 °F
100%
74%
Wednesday
Apr 5

Rain
66 °F
49 °F
100%
41%
Thursday
Apr 6

Clouds
67 °F
41 °F
0%
43%
Friday
Apr 7

Clouds
70 °F
49 °F
2%
60%
Saturday
Apr 8

Rain
75 °F
60 °F
73%
92%
Sunday
Apr 9

Clouds
84 °F
60 °F
0%
54%
Monday
Apr 10

Rain
81 °F
66 °F
87%
62%

Temperature 8-14 Day Outlook



Precipitation 8-14 Day Outlook




Quick Links
Thurlow Lake News
Thurlow Lake Photos
Thurlow Lake Videos




About Us
Contact Us
Site Map
Search Site
Advertise With Us
   
Tallassee.USLakes.info
THE THURLOW LAKE WEBSITE

Copyright 2023, Lakes Online
Privacy    |    Legal